This is the latest recevied weather packets stored in our database for station/object KQ4WWD. If no packets are shown the sender has not sent any weather packets the latest 10 day(s).
| Time | Temp. | Humidity | Pressure | Rain* | Wind** | Luminosity | Snow |
|---|---|---|---|---|---|---|---|
| 1777761855 | 21.67° C | 94% | 1010.2 hPa | 0 mm | - | 42 W/m² | - |
| 1777761552 | 21.11° C | 95% | 1010.1 hPa | 0 mm | - | 29 W/m² | - |
| 1777761250 | 21.11° C | 95% | 1010.1 hPa | 0 mm | - | 45 W/m² | - |
| 1777760948 | 21.11° C | 95% | 1009.9 hPa | 0 mm | - | 75 W/m² | - |
| 1777760645 | 21.11° C | 96% | 1009.9 hPa | 0 mm | - | 100 W/m² | - |
| 1777760340 | 21.11° C | 96% | 1009.9 hPa | 0 mm | - | 78 W/m² | - |
| 1777760037 | 21.11° C | 96% | 1009.6 hPa | 0 mm | - | 70 W/m² | - |
| 1777759734 | 21.11° C | 96% | 1009.4 hPa | 0 mm | - | 72 W/m² | - |
| 1777759430 | 21.11° C | 96% | 1009.1 hPa | 0 mm | - | 66 W/m² | - |
| 1777759127 | 21.11° C | 96% | 1008.8 hPa | 0 mm | - | 53 W/m² | - |
| 1777758825 | 21.11° C | 96% | 1008.5 hPa | 0 mm | - | 42 W/m² | - |
| 1777758521 | 21.11° C | 96% | 1009 hPa | 0 mm | - | 48 W/m² | - |
| 1777758217 | 21.11° C | 96% | 1009 hPa | 0 mm | - | 50 W/m² | - |
| 1777757915 | 21.11° C | 96% | 1009.2 hPa | 0 mm | - | 53 W/m² | - |
| 1777757612 | 21.11° C | 96% | 1009.3 hPa | 0 mm | - | 69 W/m² | - |
| 1777757311 | 21.11° C | 96% | 1009.5 hPa | 0 mm | - | 77 W/m² | - |
| 1777757009 | 21.11° C | 96% | 1009.8 hPa | 0 mm | - | 75 W/m² | - |
| 1777756706 | 21.11° C | 96% | 1009.3 hPa | 0 mm | - | 64 W/m² | - |
| 1777756401 | 21.11° C | 96% | 1009.1 hPa | 0 mm | - | 72 W/m² | - |
| 1777756098 | 21.11° C | 96% | 1009.2 hPa | 0 mm | - | 81 W/m² | - |
| 1777755796 | 21.11° C | 96% | 1009.5 hPa | 0 mm | - | 100 W/m² | - |
| 1777755493 | 21.11° C | 96% | 1009.4 hPa | 0 mm | - | 112 W/m² | - |
| 1777755188 | 21.11° C | 96% | 1009.4 hPa | 0 mm | - | 140 W/m² | - |
| 1777754886 | 21.11° C | 96% | 1009.2 hPa | 0 mm | - | 135 W/m² | - |
| 1777754583 | 21.11° C | 97% | 1009.5 hPa | 0 mm | - | 176 W/m² | - |
* Rain latest hour (hover to see other rain measurements)
** Current wind speed in m/s (hover to see current wind gust speed)